Location: D�derode
(51.8092°N, 10.1065°E)
Time: 21:28:22
(UTC+00:00)

Cosmos 1934 Rocket - Pass Details

Date: 01 December 2020
Orbit: 937 x 1000 km, 83.0° (Epoch: 24 January)

Event Time Altitude Azimuth Distance (km) Brightness Sun altitude
Rises 17:11:47 0° 352° (N) 3,738 7.0 -17.5°
Reaches altitude 10° 17:14:29 10° 359° (N) 2,782 6.3 -17.9°
Maximum altitude 17:20:33 43° 70° (ENE) 1,379 4.3 -18.8°
Drops below altitude 10° 17:26:30 10° 141° (SE) 2,741 6.1 -19.7°
Sets 17:29:08 0° 148° (SSE) 3,677 6.8 -20.1°
